GEFSSE_con_prob3kmehi_168.txt.gz
EHI
0 0 0 1 3 6 8 12 15 13 10 7 5 2 0 0 0 0 0 0 0 0 0 0 0 0 0 0 0 1 2 3 2 1 0 0 0 0 0 0 0 0 0
1 0 0 1 3 6 8 10 10 9 8 6 3 2 0 0 0 0 0 0 0 0 0 0 0 0 0 0 0 0 1 2 2 1 0 0 0 0 0 0 0 0 0
2 1 0 2 5 7 7 6 5 5 5 3 1 1 0 0 0 0 0 0 0 0 0 0 0 0 0 0 0 0 0 1 1 0 0 0 0 0 0 0 0 0 0
4 3 2 5 8 8 6 4 4 4 3 1 0 0 0 0 0 0 0 0 0 0 0 0 0 0 0 0 0 0 0 1 1 0 0 0 0 0 0 0 0 0 0
6 5 6 9 11 9 6 4 4 4 2 1 0 0 0 0 0 0 0 0 0 0 0 0 0 0 0 0 0 0 1 2 1 0 0 0 0 0 0 0 0 0 0
9 8 10 12 13 10 7 5 3 2 1 1 0 0 0 0 0 0 0 0 0 0 0 0 0 0 0 0 0 0 1 1 1 0 0 0 0 0 0 0 0 0 0
12 11 11 12 13 12 10 7 4 2 1 1 1 0 0 0 0 1 1 1 1 1 1 0 0 0 0 0 0 0 0 0 0 0 0 0 0 0 0 0 0 0 0
13 11 11 12 13 13 12 10 6 4 3 2 1 0 0 0 0 1 1 1 2 2 1 0 0 0 0 0 0 0 0 0 0 0 0 0 0 0 0 0 0 0 0
13 11 11 12 12 12 12 10 9 6 4 2 1 0 0 0 0 0 0 1 1 1 0 0 0 0 0 0 0 0 0 0 0 0 0 0 0 0 0 0 0 0 0
11 11 11 11 11 10 10 9 8 6 4 1 0 0 0 0 0 0 0 0 0 0 0 0 0 0 0 1 1 0 0 0 0 0 0 0 0 0 0 0 0 0 0
10 10 10 10 10 9 8 7 6 4 3 1 0 0 0 1 0 0 0 0 0 0 0 0 0 0 0 1 1 0 0 0 0 0 0 0 0 0 0 0 0 0 0
13 11 9 9 8 7 6 5 3 2 2 1 0 0 0 0 0 0 0 0 0 0 0 0 0 0 0 1 1 0 0 0 0 0 0 0 0 0 0 0 0 0 0
16 13 9 7 4 4 4 3 1 1 1 1 0 0 0 0 0 0 0 0 0 0 0 0 0 0 0 0 0 0 0 0 0 0 0 1 1 1 0 0 0 0 0
18 15 11 8 4 3 3 2 1 1 0 0 0 0 0 0 0 0 0 0 0 0 0 0 0 0 0 0 0 0 0 0 0 0 1 2 3 1 0 0 0 0 0
19 17 15 13 9 5 3 3 2 2 1 0 0 0 0 0 0 0 0 0 0 0 0 0 0 0 0 0 0 0 0 0 0 0 1 3 5 3 1 0 0 0 0
16 15 15 16 14 10 6 3 3 3 2 1 0 0 0 0 0 0 0 0 0 0 0 0 0 0 0 0 0 0 0 0 0 0 0 2 5 5 3 2 1 0 0
12 11 12 15 16 13 7 3 3 3 2 1 0 0 0 0 0 0 0 0 0 0 0 0 0 0 0 0 0 0 0 0 0 0 0 2 4 5 5 4 3 2 2
16 13 12 15 17 14 8 3 1 1 1 1 0 0 0 0 0 0 0 0 0 0 0 0 0 0 0 0 0 0 0 0 0 0 0 1 2 3 4 4 5 5 6
25 22 18 18 18 13 7 2 0 0 0 0 0 0 0 0 1 1 0 0 0 0 0 0 0 0 0 0 0 0 0 0 0 0 0 1 1 2 3 3 4 6 7
33 32 28 22 17 11 5 2 1 1 1 0 0 0 1 1 2 2 2 1 1 0 0 0 0 0 0 0 0 0 0 0 0 0 0 0 0 1 2 2 2 4 4
39 39 35 28 20 13 11 8 5 3 3 1 1 1 2 3 3 3 3 3 2 1 0 0 0 0 0 0 0 0 0 0 0 0 0 0 0 0 0 0 1 1 1
40 40 39 33 27 23 23 19 13 8 6 4 3 3 4 4 3 3 4 3 3 2 1 1 0 0 0 0 0 0 0 0 0 0 0 0 0 0 0 0 0 0 0
38 38 39 38 34 31 32 30 23 16 12 9 7 6 5 4 4 3 3 3 3 3 3 2 1 1 1 0 0 1 0 0 0 0 0 0 0 0 0 0 0 0 0
37 36 38 41 39 35 35 34 32 27 20 13 8 6 5 3 3 2 2 2 2 2 2 2 2 2 1 0 0 0 0 0 0 0 0 0 0 0 0 0 0 0 0
37 36 39 43 41 39 37 36 35 32 23 13 7 5 3 2 1 1 1 1 1 1 1 1 1 1 1 0 0 0 0 0 0 0 0 0 0 0 0 0 0 0 0
38 38 41 42 41 40 39 36 35 32 22 12 6 4 3 2 2 1 0 0 0 1 2 2 1 0 0 0 0 0 0 0 0 0 0 0 0 0 0 0 0 0 0

GEFSSE_con_prob3kmehi_174.txt.gz
EHI
0 0 0 0 0 1 3 6 8 6 3 1 0 0 0 0 0 0 0 0 0 0 0 0 0 0 0 0 0 0 0 0 0 0 0 0 0 0 0 0 0 0 0
0 0 0 0 0 0 2 5 7 5 2 0 0 0 0 0 0 0 0 0 0 0 0 0 0 0 0 0 0 0 0 0 0 0 0 0 0 0 0 1 1 0 0
1 1 1 1 1 1 3 5 5 4 1 0 0 0 0 0 0 0 0 0 0 0 0 0 0 0 0 0 0 0 0 0 0 0 0 0 0 0 0 1 1 0 0
1 2 2 2 2 3 5 5 5 3 1 0 0 0 0 0 0 0 0 0 0 0 0 0 0 0 0 0 0 0 0 0 0 0 0 0 0 0 0 1 1 0 0
0 2 4 4 3 3 4 4 3 1 0 0 0 0 0 0 0 0 0 0 0 0 0 0 0 0 0 0 0 0 0 0 0 0 0 0 0 0 0 0 0 0 0
0 2 4 4 2 1 1 2 1 0 0 0 0 0 0 0 0 0 0 0 0 0 0 0 0 0 0 0 0 0 0 0 0 0 0 0 0 0 0 0 0 0 0
0 2 4 4 1 0 0 0 0 0 0 0 0 0 0 0 0 0 0 0 0 0 0 0 0 0 0 0 0 0 0 0 0 0 0 0 0 0 0 0 0 0 0
1 3 5 4 2 1 0 0 0 0 0 1 1 1 0 0 0 0 0 0 0 0 0 0 0 0 0 0 0 0 0 0 0 0 0 0 0 0 0 0 0 0 0
1 2 4 4 3 1 0 0 0 0 0 1 1 1 0 0 0 0 0 0 0 0 0 0 0 0 0 1 0 0 0 0 0 0 0 0 0 0 0 0 0 0 0
1 2 3 3 2 1 0 0 0 0 0 0 0 0 0 0 0 0 0 0 0 0 0 0 0 0 0 0 0 0 0 0 0 0 0 0 0 0 0 0 0 0 0
1 2 3 3 3 1 0 0 0 0 0 0 0 0 0 0 0 0 0 0 0 0 0 0 0 0 0 0 0 0 0 0 0 0 0 0 0 0 0 0 0 0 0
4 4 4 3 3 3 1 0 0 0 0 0 0 0 0 0 0 0 0 0 0 0 0 0 0 0 1 0 0 0 0 0 0 0 0 0 0 0 0 0 0 0 0
6 6 5 4 4 4 2 1 1 1 1 1 0 0 0 0 0 0 0 0 0 0 0 0 0 0 0 0 0 0 0 0 0 0 0 0 0 0 0 0 0 0 0
10 10 8 7 7 7 4 2 1 1 1 1 0 0 0 0 0 0 0 0 0 0 0 0 0 0 0 0 0 0 0 0 0 0 0 0 0 0 0 0 0 0 0
14 13 13 12 12 11 8 5 2 1 1 1 0 0 0 0 0 0 0 0 0 0 0 0 0 0 0 0 0 0 0 0 0 0 0 0 0 0 0 0 0 0 0
15 16 17 17 17 17 13 8 5 2 2 1 1 0 0 0 0 0 0 0 0 0 0 0 0 0 0 0 0 0 0 0 0 0 0 0 0 0 1 1 0 0 0
14 15 16 17 19 19 15 10 6 4 2 1 2 1 1 0 0 0 0 0 0 0 0 0 0 0 0 0 0 0 0 0 0 0 0 0 0 0 2 3 1 0 0
15 15 14 13 16 18 15 9 6 4 3 2 3 3 2 1 1 0 0 0 1 1 0 0 0 0 0 0 0 0 0 0 0 0 0 0 0 0 2 4 4 2 1
18 17 15 14 15 15 13 9 6 4 3 3 3 3 3 3 2 2 1 2 2 2 1 1 0 0 0 0 0 0 0 0 0 0 0 0 0 0 1 3 4 4 3
25 25 23 21 19 18 15 13 12 9 7 6 5 4 4 5 5 5 4 4 4 3 3 2 1 0 0 0 0 0 0 0 0 0 0 0 0 0 0 1 2 3 4
34 36 35 32 29 28 26 24 21 18 15 12 9 7 7 7 7 6 6 6 5 4 3 3 2 1 1 1 0 0 0 0 0 0 0 0 0 0 0 0 1 2 3
43 43 42 40 41 41 36 31 29 27 24 19 16 14 12 10 8 7 7 6 4 3 3 3 3 3 3 2 2 2 1 0 0 0 0 0 0 0 0 0 0 1 1
45 44 41 42 45 46 40 32 31 32 28 25 23 20 16 13 10 8 7 7 5 4 4 3 2 4 5 5 6 5 2 1 1 0 0 0 0 0 0 0 0 0 0
46 44 44 44 47 47 42 37 34 31 28 27 26 22 17 13 10 8 8 9 8 6 5 4 3 6 8 8 10 10 6 4 2 1 0 0 0 0 0 0 1 1 1
40 43 47 50 51 51 48 45 39 32 27 26 26 22 18 13 10 8 9 10 11 11 10 7 8 10 13 13 13 13 11 9 5 2 1 0 0 0 0 1 1 3 3
34 39 48 53 53 53 52 49 44 35 27 25 26 23 19 14 11 9 9 11 13 15 14 11 12 14 16 16 15 14 14 12 8 4 1 1 1 1 1 2 2 3 5

GEFSSE_con_prob3kmehi_180.txt.gz
EHI
6 4 3 2 0 0 0 0 0 0 0 0 0 0 0 0 0 0 0 0 0 0 0 0 0 0 0 0 0 0 0 0 0 0 0 0 1 2 2 1 0 0 0
6 4 3 2 0 0 0 0 0 0 0 0 0 0 0 0 0 0 0 0 0 0 0 0 0 0 0 0 0 0 0 0 0 0 0 0 0 1 1 0 0 0 0
4 2 2 1 0 0 0 0 0 0 0 0 0 0 0 0 0 0 0 0 0 0 0 0 0 0 0 0 0 0 0 0 0 0 0 0 0 0 0 0 0 0 0
3 2 2 1 0 0 0 0 0 0 0 0 0 0 0 0 0 0 0 0 0 0 0 0 0 0 0 0 0 0 0 0 0 0 0 0 0 0 0 0 0 0 0
4 5 4 2 0 0 0 0 0 0 0 0 0 0 0 0 0 0 0 0 0 0 0 0 0 0 0 0 0 0 0 1 1 0 0 0 0 0 0 0 0 0 0
7 7 6 4 2 0 0 0 0 0 0 0 0 0 0 0 0 0 0 0 0 0 0 0 0 0 0 0 0 0 1 3 3 1 1 1 0 0 0 0 0 0 0
13 10 8 7 4 1 0 0 0 0 0 0 0 0 0 0 0 0 0 0 0 0 0 0 0 0 0 0 0 0 3 6 5 2 3 2 1 0 0 0 0 0 0
18 13 8 7 4 1 0 0 0 0 0 0 0 0 0 0 0 0 0 0 0 0 0 0 0 0 0 0 0 1 6 10 6 3 4 3 1 1 1 0 0 0 0
16 11 7 6 4 1 0 0 0 0 0 0 0 0 0 0 0 0 0 0 0 0 0 0 0 0 0 0 1 3 8 12 8 3 3 2 1 2 2 1 0 0 0
10 8 7 8 7 5 3 1 1 1 1 0 1 2 1 0 0 0 0 0 0 0 0 0 0 0 0 1 2 5 9 11 7 3 2 2 2 2 2 1 0 0 0
8 7 7 9 10 9 7 6 5 3 2 1 2 4 4 2 2 2 3 2 1 0 1 1 2 1 1 2 5 8 11 9 5 3 3 3 2 1 1 0 0 0 0
11 9 8 10 11 9 10 12 10 8 7 4 4 7 7 5 5 7 7 4 1 0 2 5 6 5 4 4 6 9 9 6 3 2 3 5 4 1 1 0 0 0 0
13 11 11 13 12 9 11 12 12 13 12 9 8 9 6 4 6 10 10 5 2 0 2 6 7 6 5 4 4 5 6 4 2 1 2 5 5 4 3 1 0 0 0
12 13 18 23 21 17 13 11 11 14 12 12 15 13 7 4 5 10 11 7 3 1 2 4 4 3 3 2 1 2 4 3 1 0 2 5 8 8 5 3 1 0 0
16 18 26 33 32 25 18 14 13 13 10 14 20 19 12 7 6 9 11 9 4 2 4 4 2 1 1 1 0 0 1 1 1 1 3 8 11 11 8 5 3 2 1
22 24 31 38 37 30 22 18 15 12 13 18 26 28 21 14 12 12 11 9 5 4 6 7 4 2 2 1 0 1 1 1 2 3 6 9 12 13 12 9 7 5 4
32 34 35 37 39 35 26 19 13 12 17 25 33 37 30 20 16 14 12 9 6 6 10 10 6 3 2 1 1 2 4 5 6 6 10 13 14 13 14 13 12 11 9
51 49 42 39 46 45 33 22 15 17 26 32 35 39 35 23 17 16 13 11 9 9 12 12 8 5 3 1 1 4 8 11 12 11 12 17 19 17 16 17 18 18 16
69 65 53 48 55 54 42 32 25 27 36 38 36 38 37 29 21 16 15 14 13 14 14 12 12 11 6 2 2 5 9 14 15 13 13 16 22 25 23 21 22 22 21
80 77 66 59 61 60 53 46 40 38 42 43 41 42 43 37 28 19 16 16 16 15 15 14 16 16 11 6 2 3 7 11 15 15 14 14 19 25 29 30 27 22 20
85 84 77 70 69 67 62 55 50 47 47 46 47 50 51 42 32 24 18 18 19 16 15 16 17 15 12 9 4 2 3 7 11 16 17 15 14 19 28 36 34 26 22
87 86 82 80 78 73 66 59 54 52 51 50 53 58 56 45 35 27 22 20 20 19 18 19 19 14 10 9 9 6 2 3 6 11 17 16 14 17 25 32 38 38 35
84 84 84 85 84 79 70 62 56 55 55 54 56 57 54 46 36 29 25 23 22 23 23 23 22 18 12 10 12 11 5 2 3 6 10 15 17 19 20 24 33 42 45
82 83 85 86 86 82 74 67 61 58 57 56 55 53 49 43 35 31 29 27 26 25 24 23 22 22 17 12 14 14 8 3 2 2 5 10 17 19 19 18 25 36 41
82 84 85 85 83 80 76 71 66 60 55 53 52 50 47 41 35 31 30 31 30 26 22 21 23 25 21 15 14 15 12 8 5 3 2 5 9 15 17 17 19 26 32
83 85 85 83 80 78 77 74 69 61 53 50 50 51 48 43 37 31 30 32 31 25 20 20 25 26 20 15 14 15 15 13 11 5 1 1 4 8 14 17 18 21 24

GEFSSE_con_prob3kmehi_186.txt.gz
EHI
1 4 6 6 4 3 3 3 3 3 3 3 3 3 3 3 3 3 3 3 3 3 3 3 3 3 3 3 3 3 3 3 3 3 3 3 3 2 2 3 3 3 3
2 4 7 7 4 3 3 3 3 3 3 3 3 3 3 3 3 3 3 3 3 3 3 3 3 3 3 3 3 3 3 3 3 3 3 3 3 3 4 4 3 3 3
4 4 6 7 5 3 3 3 3 3 3 3 3 3 3 3 3 3 3 3 3 3 3 3 2 3 3 3 3 3 3 3 3 3 3 2 2 3 4 4 3 3 3
5 4 5 7 7 4 3 3 3 3 3 3 3 3 3 3 3 3 3 3 3 3 3 2 2 2 3 3 3 3 3 3 3 2 1 1 1 2 3 4 4 3 3
4 4 6 8 7 5 4 3 3 3 3 3 3 3 3 3 3 3 3 3 3 3 3 3 2 3 3 3 3 3 2 2 1 1 0 0 1 2 3 4 4 4 3
3 4 7 9 9 7 6 5 4 3 3 3 3 3 3 3 3 3 3 3 3 3 3 3 3 3 3 4 3 2 1 1 0 0 0 0 1 3 3 4 5 4 3
3 4 8 11 11 9 7 7 5 4 3 3 3 3 3 3 3 3 3 3 3 3 3 3 3 3 4 4 3 2 1 1 0 0 0 1 2 3 3 4 4 4 3
4 5 7 10 11 9 8 8 6 4 4 3 3 3 3 3 3 3 3 3 3 3 3 3 3 3 3 3 2 1 1 1 0 0 0 1 3 4 3 3 2 2 2
4 5 7 7 6 6 6 6 5 4 3 3 3 3 3 3 3 3 3 3 3 3 3 3 2 1 1 2 2 1 1 1 0 0 0 2 5 7 5 3 1 1 1
4 5 6 5 3 3 4 4 3 3 3 3 3 3 3 3 3 3 3 3 3 4 4 3 2 1 2 3 3 3 2 1 0 0 0 4 11 12 8 4 2 1 0
4 4 4 4 3 3 3 3 3 3 3 3 3 3 3 3 3 3 3 3 4 5 5 4 4 3 4 4 4 4 2 1 0 0 2 8 15 16 10 5 3 1 0
4 4 4 3 3 3 3 3 3 3 3 3 3 3 3 3 3 3 3 3 3 4 5 5 6 5 4 3 3 2 1 0 0 0 3 11 18 18 13 8 4 1 0
7 6 5 4 3 3 3 4 4 3 3 3 3 3 3 3 3 3 3 3 3 3 4 4 4 3 2 1 1 1 0 0 0 0 4 13 20 20 16 12 7 3 1
11 8 6 6 5 4 5 5 5 4 3 3 3 3 4 4 3 3 3 3 3 3 3 3 3 1 1 0 0 0 0 0 0 0 4 13 20 21 19 15 10 5 3
19 16 14 14 12 10 8 7 7 6 5 4 4 4 5 5 4 4 4 4 3 3 2 3 2 1 0 0 0 0 0 0 0 0 3 11 20 23 21 18 15 10 7
33 32 28 25 23 19 14 11 9 8 7 7 8 8 7 6 5 5 6 5 4 3 3 3 2 1 0 0 0 0 0 0 0 0 1 6 14 20 22 22 20 17 13
48 48 43 35 32 27 22 17 12 9 8 9 11 12 9 8 7 7 6 5 4 4 3 2 2 2 1 0 0 0 0 0 0 0 0 2 5 11 18 24 26 23 20
57 57 52 44 39 35 30 22 14 9 8 10 12 12 10 9 11 10 6 3 3 3 2 1 2 2 1 0 0 0 0 0 0 0 0 0 0 3 9 20 27 28 25
58 59 56 51 46 40 34 23 12 7 8 10 11 12 11 11 13 11 7 4 3 3 1 0 1 1 0 0 0 0 0 0 0 0 0 0 0 0 3 10 20 25 27
57 59 60 57 50 42 34 24 12 6 6 8 11 13 15 15 14 11 9 6 4 3 2 1 0 0 0 0 0 0 0 0 0 0 0 0 1 1 2 5 9 14 19
60 62 64 60 53 45 37 27 17 9 6 7 10 14 17 17 16 12 9 6 5 3 2 1 0 0 0 0 0 0 0 0 0 0 0 0 1 2 3 4 4 5 8
68 69 69 66 60 51 43 34 24 15 8 7 10 14 16 17 17 13 7 4 3 2 1 0 1 1 0 0 0 0 0 0 0 0 0 0 1 2 3 4 3 3 4
74 73 71 70 66 57 48 41 33 23 14 11 11 13 15 17 18 13 6 3 3 2 2 1 2 2 1 0 0 0 0 0 0 0 0 0 0 0 1 2 2 3 3
76 72 69 67 64 58 51 46 41 32 21 14 13 13 15 17 18 14 9 6 5 5 4 3 3 3 1 0 0 0 0 0 0 0 0 0 0 0 0 0 1 2 2
74 70 65 61 57 55 52 48 43 34 24 16 13 13 13 13 14 15 12 9 6 6 5 3 2 2 1 0 0 0 0 0 0 0 0 0 0 0 0 0 0 1 1
73 68 62 58 54 52 50 47 40 33 25 16 13 13 11 9 11 13 13 9 6 4 4 2 1 1 1 0 0 0 0 0 0 0 0 0 0 0 0 0 0 0 0

GEFSSE_con_prob3kmehi_192.txt.gz
EHI
0 0 0 1 1 0 0 0 0 0 0 0 0 0 0 0 0 0 0 0 0 0 0 0 0 0 0 0 0 0 0 0 0 0 0 0 0 0 0 0 0 0 0
1 0 1 2 2 1 0 0 0 0 0 0 0 0 0 0 0 0 0 0 0 0 0 0 0 0 0 0 0 0 0 0 0 0 0 0 0 0 0 0 0 0 0
2 1 1 2 3 2 1 0 0 0 0 0 0 0 0 0 0 0 0 0 0 0 0 0 0 0 0 0 0 0 0 0 0 0 0 0 0 0 0 0 0 0 0
2 1 1 2 3 3 2 1 0 0 0 0 0 0 0 0 0 0 0 0 0 0 0 0 0 0 0 0 0 0 0 0 0 0 0 0 0 0 0 0 0 0 0
2 1 1 2 3 3 2 1 0 0 0 0 0 0 0 0 0 0 0 0 0 0 0 0 0 0 0 0 0 0 0 0 0 0 0 0 0 0 0 0 1 0 0
2 1 1 3 4 3 2 1 0 0 0 0 0 0 0 0 0 0 0 0 0 0 0 0 0 0 0 0 0 0 0 0 0 0 0 0 0 0 0 0 0 0 0
1 0 2 5 5 4 2 1 0 0 0 0 0 0 0 0 0 0 0 0 0 0 0 1 1 1 0 0 0 0 0 0 0 0 0 0 0 0 0 0 0 0 0
0 0 2 6 7 5 2 0 0 0 0 0 0 0 0 1 0 0 0 0 0 0 0 1 2 1 0 0 0 0 0 0 0 0 0 0 0 0 0 0 0 0 0
0 0 1 4 6 5 2 0 0 0 0 0 0 0 0 0 0 0 0 0 0 0 0 1 2 1 0 0 0 1 0 0 0 0 0 0 0 0 0 0 0 0 0
0 0 1 3 3 2 1 0 0 0 0 0 0 0 0 0 0 0 0 0 0 0 0 0 1 1 0 0 0 1 0 0 0 0 0 0 0 1 0 0 0 0 0
0 0 1 2 2 1 0 0 0 0 0 0 0 0 0 0 0 0 0 0 0 0 0 0 0 0 0 0 0 1 0 0 0 0 0 0 1 2 2 1 0 0 0
0 0 1 2 2 1 0 0 0 0 0 0 0 0 0 0 0 0 0 0 0 0 0 0 0 0 0 0 0 0 0 0 0 0 0 0 1 3 4 3 1 0 0
0 0 0 1 1 0 0 0 0 0 0 0 0 0 0 0 0 0 0 0 0 0 0 0 0 0 0 0 0 0 0 0 0 0 0 0 1 3 4 4 2 1 0
0 0 0 0 0 0 0 0 0 0 0 0 0 0 0 0 0 0 0 0 0 0 0 0 0 0 0 0 0 0 0 0 0 0 0 0 1 3 5 5 4 2 1
0 0 0 0 0 0 0 0 0 0 0 0 0 1 1 0 0 0 0 0 0 0 0 0 0 0 0 0 0 0 0 0 0 0 0 0 1 4 7 7 6 4 3
1 0 0 0 0 0 0 0 0 0 0 1 1 2 2 1 1 1 1 1 1 1 0 0 0 0 0 0 0 0 0 0 0 0 0 0 1 4 7 8 9 7 5
3 2 0 0 0 0 0 0 0 0 0 1 1 1 2 2 2 2 2 2 2 1 0 0 0 0 0 0 0 0 0 0 0 0 0 0 0 2 5 7 9 9 7
6 4 2 1 1 1 1 0 0 0 1 1 1 0 1 1 2 3 3 2 1 1 0 0 0 0 0 0 0 0 0 0 0 0 0 0 0 0 2 5 7 8 9
9 8 6 4 3 2 1 0 0 0 1 0 0 1 1 2 3 4 3 1 0 0 0 0 0 0 0 0 0 0 0 0 0 0 0 0 0 0 0 2 4 5 7
11 11 10 7 6 5 3 1 0 0 0 0 1 2 3 5 6 5 3 1 1 0 0 0 0 0 0 0 0 0 0 0 0 0 0 0 0 0 0 0 1 2 3
12 14 15 13 12 12 10 6 3 1 1 1 2 4 5 7 8 6 3 2 2 1 0 0 0 0 0 0 0 0 0 0 0 0 0 0 0 0 0 0 0 0 1
17 19 20 19 19 21 21 15 9 5 4 3 3 3 5 7 7 4 2 2 2 1 0 0 0 0 0 0 0 0 0 0 0 0 0 0 0 0 0 0 0 0 0
24 25 25 24 25 28 28 23 17 11 9 6 4 2 3 4 4 3 1 2 2 1 0 0 0 1 1 1 0 0 0 0 0 0 0 0 0 0 0 0 0 0 0
26 27 29 28 28 30 30 27 24 19 14 10 5 3 2 2 2 2 2 3 2 1 1 1 1 1 2 1 0 0 0 0 0 0 0 0 0 0 0 0 0 0 0
26 28 30 29 28 29 29 28 28 24 17 11 7 4 3 2 3 3 3 3 3 2 1 2 1 1 1 1 0 0 0 0 0 0 0 0 0 0 0 0 0 0 0
27 29 31 30 29 29 28 29 29 25 17 11 7 5 4 4 3 3 3 3 3 2 1 1 1 0 0 0 0 0 0 0 0 0 0 0 0 0 0 0 0 0 0

GEFSSE_con_prob3kmehi_198.txt.gz
EHI
0 0 0 0 0 0 0 0 0 0 0 0 0 0 0 0 0 0 0 0 0 0 0 0 0 0 0 0 0 1 1 1 0 0 0 0 0 0 0 0 0 0 0
0 0 0 0 0 0 0 0 0 0 0 0 0 0 0 0 0 0 0 0 0 0 0 0 0 0 0 0 0 0 0 0 0 0 0 0 0 0 0 0 0 0 0
0 0 0 0 0 0 0 0 0 0 0 0 0 0 0 0 0 0 0 0 0 0 0 0 0 0 0 0 0 0 0 0 0 0 0 0 0 0 0 0 0 0 0
0 0 0 0 0 0 0 0 0 0 0 0 0 0 0 0 0 0 0 0 0 0 0 0 0 0 0 0 0 0 0 0 0 0 0 0 0 0 0 0 0 0 0
0 0 0 0 0 0 0 0 0 0 0 0 0 0 0 0 0 0 0 0 0 0 0 0 0 0 0 0 0 0 0 0 0 0 0 0 0 0 0 0 0 0 0
0 0 0 0 0 0 0 0 0 0 0 0 0 0 0 0 0 0 0 0 0 0 0 0 0 0 0 0 0 0 0 0 0 0 0 0 0 0 0 0 0 0 0
0 0 0 0 0 0 0 0 0 0 0 0 0 0 0 0 0 0 0 0 0 0 0 0 0 0 0 0 0 0 0 0 0 0 0 0 0 0 0 0 0 0 0
0 0 0 0 0 0 0 0 0 0 0 0 0 0 0 0 0 0 0 0 0 0 0 0 0 0 0 0 0 0 0 0 0 0 0 0 0 0 0 0 0 0 0
0 0 0 0 0 0 0 0 0 0 0 0 0 0 0 1 1 0 0 0 0 0 0 0 0 0 1 1 0 0 0 0 0 0 0 0 0 0 0 0 0 0 0
0 0 0 0 0 0 0 0 1 1 1 1 0 0 0 1 1 0 0 0 0 0 0 0 0 0 1 1 0 0 0 1 0 0 0 0 0 0 0 0 0 0 0
1 1 0 0 0 0 0 0 1 2 2 1 0 0 0 1 1 0 0 0 0 0 0 0 0 0 1 1 0 0 0 0 0 0 0 0 0 0 0 0 0 0 0
2 2 1 0 0 0 0 0 1 1 2 1 0 0 0 0 0 0 0 0 0 0 0 0 0 0 0 0 0 0 0 0 0 0 0 0 0 0 0 0 0 0 0
4 3 2 1 0 0 0 0 0 0 1 1 1 0 0 0 0 0 0 0 0 0 0 0 0 0 0 0 0 0 0 0 0 0 0 0 0 0 0 0 0 0 0
5 5 4 2 1 1 1 1 0 0 0 1 1 0 0 0 0 0 0 0 0 0 0 0 0 0 0 0 0 0 0 0 0 0 0 0 0 0 0 0 0 0 0
5 4 3 2 2 2 2 2 1 1 1 0 0 0 1 2 1 1 0 0 1 1 1 0 0 0 0 0 0 0 0 0 0 0 0 0 0 0 0 0 0 0 0
3 2 1 1 2 3 3 2 1 1 1 0 0 1 2 3 3 2 1 1 1 2 2 1 0 0 0 0 0 0 0 0 0 0 0 0 1 1 1 1 0 0 0
1 0 0 1 2 4 5 3 1 1 1 0 0 1 2 3 4 4 3 3 3 2 2 1 0 0 0 0 0 0 0 0 0 0 0 0 0 1 3 3 2 2 1
3 3 2 2 3 6 9 7 3 1 1 0 0 1 2 3 4 5 5 4 4 2 1 1 0 0 0 0 0 0 0 0 0 0 0 0 0 1 3 4 4 3 2
9 9 9 8 8 10 12 12 7 3 2 2 2 3 3 3 3 4 5 5 5 3 2 1 1 0 0 0 0 0 0 0 0 0 0 0 0 0 1 4 4 2 2
17 19 18 16 17 18 17 16 12 7 6 6 6 6 5 4 3 5 7 7 6 5 4 4 3 1 1 1 0 0 1 0 0 0 0 0 0 0 1 2 3 2 2
25 27 26 24 26 28 26 22 18 13 11 10 10 9 8 6 6 7 9 8 7 6 7 6 5 4 3 2 2 1 0 0 0 0 0 0 0 0 1 3 4 4 3
30 32 32 31 33 36 34 28 23 19 14 12 11 10 9 8 8 9 10 9 9 9 9 8 7 6 5 5 5 3 1 0 1 0 0 0 0 1 2 3 4 4 2
31 33 35 36 39 42 40 31 26 23 17 13 14 12 10 10 10 10 10 9 10 12 12 10 8 7 6 6 8 6 2 0 1 0 0 0 0 1 1 1 2 3 2
27 30 35 39 43 46 43 35 30 26 20 16 16 14 12 12 13 13 11 11 11 12 13 11 8 6 6 6 8 7 3 1 1 1 1 0 0 1 1 0 1 3 4
21 27 36 42 46 47 44 40 37 31 24 20 19 17 15 15 16 16 14 13 12 12 12 11 8 5 4 5 6 5 4 2 1 1 1 0 0 1 1 1 1 3 4
18 27 38 45 47 46 44 42 40 35 28 24 21 20 18 16 16 17 16 14 13 12 12 11 8 5 4 3 3 3 2 2 1 1 1 0 1 1 2 2 1 2 3

GEFSSE_con_prob3kmehi_204.txt.gz
EHI
0 1 0 0 0 0 0 0 0 0 0 0 0 0 0 0 0 1 2 2 1 0 0 1 2 2 2 1 1 3 5 5 3 1 0 0 0 0 0 0 0 0 0
1 1 0 0 0 0 0 0 0 0 0 0 0 0 0 0 0 0 1 1 0 0 0 0 1 1 1 0 1 3 4 3 2 0 0 0 0 0 0 0 0 0 0
0 0 0 0 0 0 0 0 0 0 0 0 0 0 0 0 0 0 0 0 0 0 0 0 0 0 0 0 1 2 2 1 0 0 0 0 0 0 0 0 0 0 0
1 1 0 0 0 0 0 0 0 0 0 0 0 0 0 0 0 0 0 0 0 0 0 0 0 0 0 0 0 1 1 1 0 0 0 0 0 0 0 0 0 0 0
2 1 0 0 0 0 0 0 0 0 0 0 0 0 0 0 0 0 0 0 0 0 0 0 0 0 0 0 0 0 1 1 0 0 0 0 0 0 0 0 0 0 0
4 2 0 0 0 0 0 0 0 0 0 0 0 0 0 0 0 0 0 0 0 0 0 0 0 0 0 0 1 1 2 1 0 0 0 0 0 0 0 0 0 0 0
7 3 1 0 0 0 0 0 0 0 0 0 0 0 0 0 0 0 0 0 0 0 0 0 0 0 0 1 2 3 4 4 1 0 1 2 1 0 0 0 0 0 0
10 6 1 0 0 0 0 0 0 0 0 0 0 0 0 0 0 0 0 0 0 0 0 0 0 0 0 1 2 4 7 6 2 0 1 2 1 0 0 0 0 0 0
11 7 3 1 1 0 0 0 0 0 0 0 0 0 0 0 0 0 0 0 0 0 0 0 0 0 0 0 1 4 7 7 3 1 1 2 2 1 0 0 0 0 0
9 7 5 3 3 3 2 1 1 1 1 1 2 2 1 1 0 0 0 0 0 0 0 0 0 0 0 1 2 4 6 6 3 1 2 4 5 2 0 0 0 0 0
7 6 6 5 4 5 4 4 3 3 2 3 4 4 3 3 2 3 5 5 3 0 0 0 0 0 0 1 3 6 7 5 2 1 5 9 9 5 1 0 0 0 0
7 7 8 7 5 3 4 5 5 5 5 6 7 7 5 4 4 8 12 11 7 2 1 2 2 1 0 0 3 7 7 4 1 1 5 12 12 7 2 0 0 0 0
6 6 8 9 7 5 5 5 5 6 7 9 11 10 6 4 6 11 13 12 8 3 1 2 2 1 0 0 2 5 5 3 1 2 7 13 14 10 5 2 1 0 0
6 5 8 10 10 9 8 6 5 5 6 10 14 12 8 7 7 9 12 13 9 5 4 4 3 1 0 0 0 1 2 2 1 4 10 16 17 14 10 7 4 2 1
8 6 9 13 12 10 10 9 7 5 6 10 14 15 14 12 8 9 15 17 10 5 6 6 4 2 1 0 0 0 1 1 2 5 12 19 20 17 16 15 12 8 5
9 9 11 16 17 14 12 10 8 7 9 11 13 17 19 16 12 12 17 17 10 7 9 9 6 3 2 2 1 1 2 2 3 6 11 18 21 20 22 23 21 17 13
13 14 15 18 23 23 17 11 7 7 10 12 14 18 21 18 15 14 15 14 10 10 13 13 10 7 5 3 3 2 4 7 9 10 12 17 19 19 24 27 24 20 17
26 26 20 21 29 31 24 16 10 9 9 11 16 21 22 19 16 15 15 14 14 13 13 13 12 11 7 4 4 5 7 12 15 15 16 20 19 19 23 26 25 21 19
45 40 28 26 34 35 30 24 19 15 11 12 18 23 23 20 17 16 16 18 19 16 11 10 12 13 9 5 5 6 8 11 14 15 17 18 20 23 24 25 24 22 20
60 54 42 37 39 38 33 29 25 22 18 17 22 26 24 21 19 17 18 20 21 17 12 10 12 13 11 8 5 4 4 6 10 13 14 13 16 21 27 29 26 21 19
70 67 60 51 48 45 38 32 28 27 25 24 27 29 27 22 20 19 19 20 20 17 13 11 12 13 11 9 6 3 2 3 7 11 13 12 11 14 23 33 34 27 22
78 75 72 68 64 57 46 36 31 30 28 27 29 29 27 23 19 18 19 20 18 15 13 13 14 13 10 7 6 4 2 3 4 7 12 14 12 12 20 31 38 37 33
76 73 72 76 75 66 53 42 37 35 31 28 29 31 29 24 19 18 19 19 16 14 14 15 16 13 9 7 5 4 4 4 4 6 8 12 14 17 18 23 32 37 38
69 68 71 77 77 68 57 48 44 42 37 31 33 35 33 29 24 22 22 22 18 15 13 13 14 13 9 6 5 4 4 5 5 5 5 8 13 18 18 18 22 28 33
63 67 74 79 76 69 61 53 49 45 39 34 35 36 35 33 30 27 28 30 26 18 14 12 12 12 9 7 5 4 4 4 4 3 3 5 9 13 17 16 14 19 24
60 66 77 80 76 70 62 56 51 46 38 34 33 34 35 34 32 30 32 35 32 23 17 15 13 10 9 7 6 5 4 3 2 2 3 4 5 9 14 13 11 14 19

GEFSSE_con_prob3kmehi_210.txt.gz
EHI
3 3 3 3 3 3 3 3 3 3 4 5 5 5 5 4 3 3 3 3 4 5 5 5 4 4 3 3 3 3 3 3 3 3 3 3 3 3 3 2 1 1 3
3 3 3 3 3 3 3 3 3 3 3 4 4 4 4 3 3 3 3 3 4 4 4 4 4 4 3 3 3 3 3 3 3 3 3 3 3 3 3 3 1 2 3
3 3 3 4 4 3 3 3 3 3 3 3 3 3 3 3 3 3 3 3 3 4 3 3 4 3 3 3 3 3 3 3 3 2 1 1 2 3 3 3 2 3 3
3 3 4 5 5 4 3 3 3 3 3 3 3 3 3 3 3 3 3 3 3 3 3 3 3 3 3 3 3 3 3 3 3 1 0 0 1 3 3 3 2 2 2
3 3 4 5 5 4 3 3 3 3 3 3 3 3 3 3 3 3 3 3 3 3 3 3 3 3 3 3 3 3 3 3 2 1 0 0 1 2 3 2 1 1 1
3 3 5 6 5 3 3 3 3 3 3 3 3 3 3 3 3 3 3 3 3 3 3 3 3 3 3 3 3 4 4 4 2 1 0 0 1 2 3 2 1 0 0
3 4 5 6 5 3 3 3 3 3 3 3 3 3 4 3 3 3 3 3 3 3 3 3 3 3 3 3 3 4 6 5 2 0 0 0 1 2 1 1 1 0 0
3 3 5 6 4 3 3 3 3 3 3 3 4 4 5 4 3 3 3 3 3 3 3 3 3 3 3 3 3 5 7 5 2 0 0 0 1 2 1 0 1 1 0
3 3 4 4 4 3 3 3 3 3 3 4 5 6 6 5 4 3 3 3 3 3 3 3 3 3 3 3 4 6 8 6 2 0 0 1 3 3 1 0 1 1 1
2 3 3 3 3 3 3 3 3 3 3 4 6 7 6 6 5 4 3 3 3 3 3 4 4 4 4 4 5 7 8 5 1 0 0 2 5 6 4 2 1 2 2
1 1 3 3 3 3 3 3 3 3 3 4 5 6 5 4 3 3 3 4 4 4 4 5 6 5 4 4 4 5 5 2 0 0 0 3 8 10 8 5 3 2 2
1 1 2 3 3 3 2 2 2 3 3 3 4 4 2 1 1 2 3 4 5 5 4 5 6 5 4 3 2 2 1 0 0 0 1 6 12 14 12 9 6 4 2
2 1 1 3 3 1 1 1 1 2 3 3 3 2 1 1 1 1 2 4 4 3 3 3 3 3 2 1 0 0 0 0 0 0 3 11 18 17 14 12 9 6 4
3 2 2 3 3 2 0 0 1 2 3 3 3 2 2 3 2 1 1 1 1 1 1 1 1 1 1 0 0 0 0 0 0 0 4 14 21 20 18 16 13 9 7
7 6 4 4 5 3 1 1 2 3 3 3 3 3 3 3 3 2 1 1 0 0 0 0 0 0 0 0 0 0 0 0 0 0 3 12 20 22 21 21 18 14 11
11 9 6 5 6 4 3 4 4 4 4 4 4 4 4 4 3 3 3 2 1 0 0 0 0 0 0 0 0 0 0 0 0 0 1 6 16 21 22 23 23 20 17
11 11 8 6 6 5 4 6 6 5 5 4 4 5 5 5 4 3 3 3 2 1 1 1 0 0 0 0 0 0 0 0 0 0 0 2 8 16 20 21 23 22 20
11 11 8 7 8 7 5 5 5 4 4 4 4 5 6 6 5 4 4 3 2 1 2 2 1 1 0 0 0 0 0 0 0 0 0 0 3 8 12 16 20 21 20
13 12 9 8 10 8 6 5 4 4 4 4 4 6 7 6 6 6 5 4 3 1 2 2 2 2 1 1 1 0 0 0 0 0 0 0 1 3 5 9 14 17 17
15 13 10 10 11 10 9 8 6 5 5 5 5 6 7 7 6 7 6 6 5 3 2 3 3 3 2 2 1 0 0 0 0 0 0 0 0 1 1 4 6 9 11
22 17 13 14 14 12 12 11 8 6 5 4 5 6 7 7 8 8 6 6 5 5 4 4 4 3 2 1 1 0 0 0 0 0 0 0 0 0 0 1 1 2 4
33 26 21 21 21 19 17 14 11 9 7 5 5 6 7 9 11 10 6 5 5 5 5 5 4 3 1 0 0 0 0 0 0 0 0 0 0 0 0 0 0 0 1
44 38 31 29 30 27 24 22 19 16 13 9 7 7 8 11 12 10 8 6 4 4 4 4 4 3 2 1 0 0 0 0 0 0 0 0 0 0 0 0 0 0 0
53 47 38 33 33 32 31 30 28 22 17 12 10 8 8 9 11 9 8 6 4 3 3 3 3 3 2 1 0 0 0 0 0 0 0 0 0 0 0 0 0 0 0
55 51 44 37 34 34 34 35 32 25 17 13 11 9 7 6 7 7 6 5 4 3 3 3 3 3 2 1 0 0 0 0 0 0 0 0 0 0 0 0 0 0 1
52 52 49 43 37 35 35 36 34 26 17 13 12 9 7 5 5 6 5 4 3 3 3 3 3 3 2 1 0 0 0 0 0 0 0 0 0 0 0 0 0 1 1

GEFSSE_con_prob3kmehi_216.txt.gz
EHI
0 1 2 1 0 0 1 2 3 4 4 3 4 4 4 2 1 0 0 0 1 2 2 2 1 0 0 0 0 0 0 0 0 0 0 0 0 0 0 0 0 0 0
0 1 1 1 0 0 0 1 1 2 3 2 3 3 3 2 1 0 0 0 0 1 1 1 1 0 0 0 0 0 0 0 0 0 0 0 0 0 0 1 1 0 0
0 0 0 0 0 0 0 0 0 1 1 1 1 1 1 1 1 1 0 0 0 0 0 0 0 0 0 0 0 0 0 0 0 0 0 0 0 1 1 2 1 0 0
0 0 0 0 0 0 0 0 0 0 1 0 0 0 0 0 0 0 0 0 0 0 0 0 0 0 0 0 0 0 0 0 0 0 0 0 0 1 2 2 1 0 0
0 0 0 1 1 1 1 0 0 0 0 0 0 0 0 0 0 0 0 0 0 0 0 0 0 0 0 0 0 0 0 0 0 0 0 0 0 1 1 1 0 0 0
0 0 1 2 2 2 1 0 0 0 0 0 0 0 0 0 0 0 0 0 0 0 0 0 0 0 0 0 0 0 0 0 0 0 0 0 0 0 0 0 0 0 0
0 0 1 1 1 1 1 1 1 0 0 0 0 0 0 0 0 0 0 0 0 0 0 0 0 0 0 0 0 0 0 0 0 0 0 0 0 0 0 0 0 0 0
0 0 0 0 0 0 0 1 2 1 0 0 0 0 0 0 0 0 0 0 0 0 0 0 0 0 0 1 2 1 0 0 0 0 0 0 0 0 0 0 0 0 0
0 0 0 0 0 0 0 1 2 2 1 1 0 0 0 0 0 0 0 0 0 0 0 0 0 0 0 1 4 3 1 0 0 0 0 0 1 1 1 0 0 0 0
0 0 0 0 0 0 0 0 1 3 3 2 1 0 0 0 0 0 0 0 0 0 0 0 1 1 0 1 4 4 1 0 0 0 0 0 2 3 3 1 0 0 0
0 0 0 0 0 0 0 0 1 3 3 2 1 0 1 0 0 0 0 0 0 0 0 0 1 1 0 1 3 3 1 0 0 0 0 0 1 3 3 2 0 0 0
0 0 0 0 0 0 0 0 1 3 3 3 1 0 0 0 0 0 1 0 0 0 0 0 1 1 0 0 1 1 1 0 0 0 0 1 1 3 5 6 4 2 1
0 0 0 0 0 0 0 0 1 2 3 3 2 1 0 0 0 0 0 0 0 0 0 0 0 0 0 0 0 0 0 0 0 0 0 1 2 4 8 11 9 5 3
0 0 0 0 0 0 0 0 1 1 2 2 2 1 0 0 0 0 0 0 0 0 0 0 0 0 0 0 0 0 0 0 0 0 0 1 2 5 9 12 10 6 4
1 0 0 0 0 0 0 0 0 1 2 2 2 2 1 1 1 1 0 0 0 0 0 0 0 0 0 0 0 0 0 0 0 0 0 0 2 4 7 9 8 5 3
2 1 1 0 1 1 1 1 1 2 3 3 3 3 3 2 2 1 0 0 0 0 0 0 0 0 0 0 0 0 0 0 0 0 0 0 1 3 6 7 7 6 5
3 2 1 1 1 2 2 2 2 2 3 3 3 3 3 3 1 1 1 1 1 0 0 0 0 0 0 0 0 0 0 0 0 0 0 0 1 2 4 6 7 8 9
2 1 1 1 1 1 1 1 1 1 2 3 3 3 3 3 1 1 2 3 2 1 0 0 0 0 0 0 0 0 0 0 0 0 0 0 0 1 2 4 6 9 11
1 0 0 1 0 0 0 0 0 0 1 1 2 3 3 3 3 3 3 3 3 2 1 0 0 0 0 0 0 1 0 0 0 0 0 0 0 0 0 1 4 7 8
1 1 1 2 1 0 0 0 0 0 0 0 1 2 3 3 3 3 3 3 3 3 1 1 1 0 0 0 0 0 0 0 0 0 0 0 0 0 0 0 2 4 4
1 1 2 3 3 2 1 1 1 0 0 0 1 2 2 2 3 3 3 3 3 3 2 2 2 1 0 0 0 0 0 0 0 0 0 0 0 0 0 0 1 2 2
1 1 3 5 5 4 3 3 2 1 0 0 1 2 1 1 1 3 3 3 3 3 2 3 3 2 1 1 1 0 0 0 0 0 0 0 0 0 0 0 0 1 1
2 2 5 6 5 5 6 5 4 2 0 0 1 1 1 0 1 2 3 3 3 3 3 3 3 3 3 2 1 0 0 0 0 0 0 0 0 0 0 0 0 0 0
4 5 5 6 5 5 6 7 6 3 1 0 0 0 0 0 0 1 1 3 3 3 3 3 3 3 3 3 1 0 0 0 0 0 0 0 0 0 0 0 0 0 0
8 7 6 5 5 4 6 7 6 4 1 0 0 0 0 0 0 0 1 2 3 3 3 3 3 3 3 3 2 1 0 0 0 0 0 0 0 0 0 0 0 0 0
11 9 6 5 5 4 5 6 5 3 2 1 1 1 1 0 0 0 0 1 2 3 3 3 3 3 3 3 2 1 0 0 0 0 0 0 0 0 0 0 0 0 0

GEFSSE_con_prob3kmehi_222.txt.gz
EHI
0 0 0 0 1 1 1 1 1 1 0 0 0 0 0 1 2 2 2 1 1 0 0 0 0 0 0 0 0 0 0 0 0 0 0 0 0 1 1 1 0 0 0
0 0 0 0 0 0 0 0 0 0 1 1 1 0 0 0 1 1 1 1 1 0 0 0 0 0 0 0 0 0 0 0 0 0 0 0 0 0 0 0 0 0 0
0 0 0 0 0 0 0 0 0 0 1 2 1 0 0 0 0 0 0 0 0 0 0 0 0 0 0 0 0 0 0 0 0 0 0 0 0 0 0 0 0 0 0
0 0 0 0 0 0 0 0 0 0 1 1 1 0 0 0 1 0 0 0 0 0 0 0 0 0 0 0 0 0 0 0 0 0 0 0 0 0 0 0 0 0 0
0 0 0 0 0 0 0 0 0 0 0 0 0 0 0 0 0 0 0 0 0 0 0 0 0 0 0 0 0 0 0 0 0 0 0 0 0 0 0 0 0 0 0
0 0 0 0 0 0 0 0 0 0 0 0 0 0 0 0 0 0 0 0 0 0 0 0 0 0 0 0 0 1 1 1 1 0 0 0 0 0 0 0 0 0 0
0 0 0 0 0 0 0 0 0 0 0 0 0 0 0 0 0 0 0 0 0 0 0 0 0 0 0 0 0 1 2 2 2 1 0 0 0 0 0 0 0 0 0
0 0 0 1 1 1 0 0 0 0 0 0 0 0 0 0 0 0 0 1 0 0 0 0 0 0 0 0 0 1 2 2 1 0 0 0 0 0 0 0 0 0 0
0 0 0 1 1 1 0 0 0 0 0 0 0 0 0 0 0 0 0 0 0 0 0 0 0 0 0 0 0 1 1 1 0 0 0 0 0 0 0 0 0 0 0
0 0 0 0 1 1 0 1 1 1 0 0 0 0 0 0 0 0 0 0 0 0 0 0 0 0 0 0 0 0 0 0 0 0 0 0 0 0 0 0 0 0 0
0 0 0 0 0 1 1 1 2 2 1 0 0 0 0 0 0 0 0 0 0 0 0 0 0 0 0 0 0 0 0 0 0 0 0 0 0 0 1 1 1 0 0
0 0 0 0 1 2 2 2 3 2 1 1 1 1 1 1 1 0 0 0 0 0 0 0 0 0 0 0 1 0 0 0 0 0 1 2 1 1 2 2 2 1 0
0 0 0 0 1 2 3 2 2 3 3 2 2 2 2 2 2 1 0 0 0 0 0 0 0 0 0 0 0 0 0 0 0 0 1 3 3 3 3 3 3 2 2
1 0 0 0 1 2 1 1 2 3 3 3 3 3 3 3 2 1 0 0 0 0 0 0 0 0 0 0 0 0 0 0 0 1 2 4 5 3 3 3 3 3 4
3 2 1 1 1 1 1 1 2 3 3 3 3 3 3 3 1 0 0 0 0 0 0 0 0 0 0 0 0 0 0 1 1 2 3 5 6 3 2 3 4 3 3
3 3 2 2 2 2 2 2 3 3 3 3 3 3 3 3 1 1 0 0 0 0 0 1 0 1 2 2 1 1 1 2 3 3 3 4 5 3 2 3 4 3 2
3 3 3 3 3 4 4 3 3 2 3 3 3 3 4 4 4 3 1 1 0 1 1 1 1 2 4 4 3 2 3 4 5 5 3 3 4 4 4 5 5 4 2
5 4 4 3 2 3 4 4 2 1 1 2 3 3 5 6 6 4 3 2 2 2 2 1 1 1 2 3 3 3 3 4 4 4 3 4 4 4 6 8 7 4 3
7 7 7 5 4 5 5 5 4 2 1 1 3 4 5 7 6 5 4 3 3 2 2 2 1 1 1 1 2 2 1 1 1 1 2 3 3 3 3 6 6 4 3
8 11 12 11 10 9 6 5 5 3 2 1 2 3 4 5 6 5 4 4 3 2 2 3 3 1 1 2 2 1 1 0 0 0 1 1 1 1 1 2 3 3 3
10 14 18 18 17 13 9 7 5 4 2 1 2 3 2 3 4 4 4 4 2 2 3 5 5 3 3 3 3 2 2 1 0 0 0 0 0 0 0 0 2 3 3
15 16 19 21 20 17 13 10 8 7 4 2 1 2 1 1 2 3 3 2 2 3 4 5 5 4 3 3 3 3 3 1 1 0 0 1 1 0 0 0 2 3 3
15 15 16 21 25 23 18 13 12 11 8 4 2 1 1 1 1 2 1 2 3 4 4 4 4 3 3 3 3 3 3 3 2 1 1 2 2 1 0 0 2 3 3
12 12 16 23 30 29 23 18 16 13 9 5 2 1 1 1 1 0 1 2 3 4 3 3 3 3 4 4 4 4 4 4 3 2 3 3 2 2 2 2 3 5 5
11 13 17 26 34 34 29 26 23 16 10 6 5 4 2 1 0 0 1 3 4 3 3 3 3 4 4 5 6 6 5 6 5 4 4 3 3 4 5 5 5 5 5
11 13 18 27 37 37 32 30 29 20 11 7 7 7 4 1 0 0 1 4 5 4 3 3 3 4 4 5 6 7 7 8 7 6 4 4 3 4 5 6 6 5 4

GEFSSE_con_prob3kmehi_228.txt.gz
EHI
0 0 0 0 0 0 1 0 0 0 0 0 1 2 2 1 0 0 0 0 0 1 1 1 1 1 0 0 0 0 0 1 1 1 0 1 1 1 0 0 0 0 0
0 0 0 0 0 1 1 0 0 0 0 0 0 1 2 2 1 0 0 1 1 1 1 0 0 0 0 0 0 0 0 0 0 0 0 0 0 0 0 0 0 0 0
0 0 0 0 0 1 1 1 1 1 1 1 0 0 1 2 1 0 0 1 2 1 1 0 0 0 0 0 0 0 0 0 0 0 0 0 0 0 0 0 0 0 0
1 0 0 0 0 1 2 2 2 1 1 0 0 0 0 1 1 0 0 1 1 1 1 1 0 0 0 0 0 0 0 0 0 0 1 0 0 0 0 0 0 0 0
1 0 0 0 0 1 1 1 1 1 0 0 0 0 0 0 0 0 0 0 0 0 0 0 0 0 0 0 0 0 0 0 1 1 1 1 0 0 0 0 0 0 0
1 0 0 0 0 0 0 0 0 0 0 0 0 0 0 0 0 0 0 0 0 0 0 0 0 1 1 0 0 0 1 2 4 3 1 2 1 0 0 0 0 0 0
2 1 1 2 1 0 0 0 0 0 0 0 0 0 0 0 0 0 0 0 0 0 0 0 1 2 2 1 1 1 2 5 6 3 2 2 1 0 0 0 0 0 0
4 3 2 2 1 1 1 0 0 0 0 0 0 0 0 0 0 0 0 0 0 0 0 0 1 2 2 1 1 2 4 8 8 3 1 1 1 1 0 0 0 0 0
5 3 2 1 1 1 1 1 0 0 0 0 0 0 0 0 0 0 0 0 0 0 0 0 0 1 1 0 1 1 3 7 7 3 0 1 2 2 1 0 0 0 0
4 3 2 2 2 2 1 2 2 1 0 1 1 2 2 1 0 1 1 1 0 0 0 1 1 1 0 0 1 2 3 4 4 2 0 2 5 4 1 0 0 0 0
2 3 3 4 5 3 3 4 4 3 3 2 3 5 5 2 1 1 2 2 1 0 1 2 2 1 0 0 3 6 5 2 1 0 2 5 8 6 2 0 0 0 0
1 2 3 5 5 4 3 4 3 5 6 5 5 6 6 4 1 1 3 3 1 0 1 2 2 1 0 1 4 8 7 3 1 0 4 9 12 9 5 3 2 1 0
0 1 2 4 4 6 6 5 3 5 7 8 8 8 6 5 2 1 3 3 1 1 1 2 2 1 1 2 4 6 6 3 1 2 8 14 16 13 10 6 4 2 1
1 1 2 3 5 9 11 8 5 5 7 10 12 10 7 5 3 2 4 3 2 3 3 2 2 3 2 2 3 4 4 2 2 4 11 17 18 15 12 8 4 2 1
2 3 5 7 8 10 12 11 9 7 7 11 14 12 8 7 5 4 5 4 4 5 5 4 4 5 4 2 3 3 3 3 4 6 11 16 18 16 13 8 4 2 1
4 5 8 12 14 11 10 11 12 10 10 12 15 14 12 11 8 6 6 6 5 5 6 5 5 6 5 4 3 4 4 3 5 7 9 13 16 15 13 8 5 4 4
10 10 10 12 15 14 11 11 11 12 13 15 15 14 13 13 10 8 7 6 5 6 7 6 5 5 5 4 4 5 5 4 4 6 8 10 11 11 11 10 8 7 7
21 17 11 8 12 15 14 12 11 13 16 16 15 14 13 12 10 9 8 7 5 5 7 6 5 6 4 2 3 4 5 6 6 5 6 8 7 7 10 12 11 10 10
30 24 15 9 10 14 15 13 12 14 15 15 16 16 14 12 10 10 9 8 6 5 5 5 5 6 4 2 2 3 4 7 9 8 6 7 7 7 8 10 10 10 11
35 31 25 16 13 14 14 13 13 14 13 14 17 16 14 12 11 10 9 9 8 6 5 4 5 6 6 5 4 3 3 6 11 11 7 4 5 7 9 9 8 7 7
42 41 36 28 23 20 17 15 15 14 12 15 18 16 13 12 11 9 8 9 8 7 6 6 7 8 9 8 6 5 5 6 8 9 6 3 4 6 11 14 13 8 5
50 48 43 39 36 30 24 20 17 14 12 15 19 19 15 12 10 8 8 9 9 9 8 9 11 10 8 7 7 7 6 5 4 4 4 3 3 6 10 16 18 14 11
51 48 46 48 45 37 31 26 22 19 17 18 21 24 21 16 11 9 9 9 9 10 11 12 11 9 6 6 6 6 5 4 3 2 2 3 4 6 8 11 16 17 15
47 46 51 56 51 42 35 31 28 26 25 24 25 26 25 21 16 13 12 11 10 11 13 13 11 9 8 7 6 6 6 5 4 2 1 2 5 7 8 9 11 14 14
43 48 58 64 60 52 43 37 33 31 29 27 27 27 28 27 25 21 18 15 13 13 14 14 11 11 12 11 8 8 8 7 6 4 2 2 4 7 8 9 10 12 13
43 51 63 69 67 59 50 41 37 35 31 27 27 28 30 32 32 29 23 18 16 16 17 15 12 12 14 14 11 9 9 9 7 5 3 2 2 4 6 7 9 12 13

GEFSSE_con_prob3kmehi_234.txt.gz
EHI
0 0 0 0 0 0 0 0 0 1 3 2 1 1 0 0 0 0 0 0 0 0 1 2 3 1 1 2 2 1 0 0 0 1 0 0 0 0 1 0 0 0 1
0 0 0 0 0 0 0 0 0 2 4 4 2 1 0 0 0 0 0 0 0 0 0 2 3 2 1 1 1 0 0 0 0 1 0 0 0 0 1 0 0 0 1
0 0 0 0 0 0 1 1 1 2 4 4 2 1 0 0 0 0 0 0 0 0 0 1 2 2 2 1 1 0 0 0 0 0 0 0 0 0 0 0 0 0 1
0 0 0 0 1 1 2 3 2 2 2 2 1 1 0 0 0 0 0 0 1 0 0 0 1 2 2 2 1 0 0 1 0 0 0 0 0 0 0 0 0 0 0
0 0 0 1 2 3 3 2 1 1 0 1 2 2 1 1 0 0 0 0 0 0 0 0 0 1 1 1 1 0 0 0 0 0 0 0 0 0 0 0 0 0 0
1 1 1 2 4 3 1 1 0 0 0 0 1 2 2 2 2 1 0 0 0 0 0 0 0 0 0 0 0 0 0 0 0 0 0 0 0 1 1 0 0 0 0
2 2 2 3 4 3 1 1 1 0 0 0 1 1 2 2 3 2 1 0 0 0 0 0 0 0 0 0 0 1 1 0 0 0 0 0 2 5 4 2 1 0 0
3 3 2 3 4 3 3 2 1 1 0 0 0 0 0 1 2 2 1 1 1 1 0 0 0 0 0 0 0 1 2 1 0 0 0 1 5 9 8 4 4 2 0
1 2 1 2 3 3 3 2 1 1 1 0 0 0 0 0 0 1 1 2 2 2 1 0 0 0 0 0 0 1 1 2 1 0 0 2 7 12 9 6 6 3 1
1 1 0 1 2 2 1 1 0 0 0 0 0 0 0 0 0 0 2 3 3 2 1 0 0 0 0 0 0 0 1 1 0 0 0 2 8 12 10 7 5 3 1
1 0 0 0 1 1 0 0 0 0 0 0 0 0 0 0 0 0 2 4 3 2 0 0 0 0 0 0 0 1 0 0 0 0 0 2 7 11 11 8 5 3 2
1 0 0 0 0 0 0 0 0 0 0 0 0 0 0 0 0 0 2 4 3 1 0 0 0 1 0 0 0 0 0 0 0 0 1 4 8 10 9 7 6 4 3
1 0 0 0 0 0 0 0 0 0 0 0 0 0 0 0 0 0 1 2 1 1 0 0 0 0 0 0 0 0 0 0 0 0 2 6 9 10 9 7 6 5 4
2 1 1 1 1 1 0 0 0 0 0 0 0 0 0 0 0 0 0 0 0 0 0 0 0 0 0 0 0 0 0 0 0 0 2 7 10 10 8 8 7 5 4
5 4 2 2 2 2 1 1 1 1 1 0 0 0 0 0 0 0 0 0 0 0 0 0 0 0 0 0 0 0 0 0 0 0 2 7 11 11 10 10 10 7 5
7 6 4 3 2 3 3 4 3 2 1 0 0 0 0 0 0 0 0 0 0 0 0 0 0 0 0 0 0 0 0 0 0 0 1 5 9 11 12 12 12 11 9
9 7 5 4 3 3 5 6 5 3 1 0 0 0 0 0 0 0 0 0 1 1 1 1 0 0 1 1 1 1 1 0 0 1 2 4 6 8 11 14 14 12 11
10 8 6 6 5 5 6 7 6 4 1 0 0 0 0 0 1 1 1 1 2 2 2 1 0 1 2 2 2 2 2 1 1 1 2 3 4 5 7 12 14 12 10
10 8 8 8 8 7 6 7 6 5 3 1 1 1 0 1 3 4 3 2 2 2 2 1 0 1 2 1 1 1 2 2 1 1 2 3 3 3 4 7 10 10 10
10 9 8 8 9 8 6 6 5 5 5 4 3 2 2 3 4 5 4 2 1 2 2 1 1 1 1 0 0 0 1 1 1 0 1 1 2 3 3 3 5 6 7
14 12 10 10 11 10 8 6 5 5 5 5 4 3 3 3 3 3 2 1 1 1 2 1 1 0 0 0 0 0 0 0 0 0 0 0 1 1 2 2 2 2 2
20 18 16 15 15 12 9 7 5 4 4 5 4 4 3 2 2 2 1 0 0 1 1 1 0 0 0 0 0 0 0 0 0 0 0 0 0 0 1 1 1 1 0
27 25 22 20 18 14 11 8 5 3 3 4 5 4 4 2 2 3 2 2 1 1 1 0 0 0 1 1 1 1 2 2 1 0 0 0 0 0 0 0 0 0 0
30 29 27 24 20 17 13 10 8 5 4 5 5 5 5 4 5 5 5 4 3 3 2 1 1 1 2 3 3 3 3 3 2 1 0 0 0 0 0 0 0 0 0
31 31 30 27 23 20 17 14 12 10 8 7 6 6 6 6 7 7 6 6 5 4 4 3 2 1 2 3 4 3 3 2 2 1 0 0 0 0 0 0 0 0 0
32 32 32 30 27 23 20 16 15 13 10 8 7 7 6 7 7 7 6 6 6 6 5 5 4 2 2 3 4 3 2 1 1 0 0 0 0 0 0 0 0 0 0